Погода в Базитамаке

Россия / Республика Башкортостан     55°38′49″N   54°32′04″E
темп.,
°C
ветер,
м/с
пор.,
м/с
влажн.,
%
обл.,
%
осадки,
мм/ч
давл.,
гПа
погр.,
м
15 апреля, чт
чт1523:00+11ю347158 0.0 102747
02:00+9ю367851 0.0 102690
05:00+7ю337836 0.0 102633
08:00+8ю25785 0.0 102495
11:00+14ю35595 0.0 1023401
14:00+19ююз56450 0.0 1022977
17:00+20юз57420 0.0 10201432
20:00+15ююз335883 0.0 101939
16 апреля, пт
пт1623:00+12юз33656 0.0 102032
02:00+11зюз22680 0.0 101911
05:00+8ссв36860 0.0 1020101
08:00+7св510879 0.0 1022344
11:00+11св577216 0.0 1022616
14:00+14св566441 0.0 1022932
17:00+13св666468 0.0 10231022
20:00+10св58765 0.0 1023444
17 апреля, сб
сб1723:00+6св49855 0.0 1024342
02:00+5св411824 0.0 1024315
05:00+3св411790 0.0 1025264
08:00+4св410770 0.0 1025321
11:00+9св67513 0.0 1025790
14:00+11св67340 0.0 10241255
17:00+12ссв55354 0.0 10241416
20:00+9с37512 0.0 1023142
18 апреля, вс
вс1823:00+6с33610 0.0 102351
02:00+4с34694 0.0 102344
05:00+3с34741 0.0 102251
08:00+4ссз38722 0.0 1022225
11:00+9с68565 0.0 10211118
14:00+5ссв81166100 0.0 1023711
17:00+6ссв8103416 0.0 10252030
20:00+4ссв711374 0.0 1027875
19 апреля, пн
пн1923:00+1св611515 0.0 1030616
02:00−1св510590 0.0 1032436
05:00−1св49570 0.0 1034415
08:000всв57400 0.0 1036804
11:00+2св56304 0.0 10371750
14:00+4св46281 0.0 10371928
17:00+5ссв45295 0.0 10361932
20:00+3ссв23410 0.0 1037172